Location: Roland
(31.1349°N, 85.4372°W)
Time: 04:22:56
(UTC+00:00)

Vanguard 2 Rocket - Pass Details

Date: 04 December 2021
Orbit: 554 x 3324 km, 32.9° (Epoch: 16 January)

Event Time Altitude Azimuth Distance (km) Brightness Sun altitude
Rises 03:08:03 0° 282° (WNW) 4,230 10.8 -56.8°
Reaches altitude 10° 03:10:23 10° 282° (WNW) 3,530 10.3 -57.3°
Enters shadow 03:12:07 19° 282° (WNW) 3,057 9.8 -57.7°
